Weather History for Alexandria, LA

Change the Weather History Date:

Thursday, January 27, 2011

  Actual Average Record
Temperature  
Mean Temperature 48 °F 49 °F  
Max Temperature 63 °F 60 °F 82 °F (1903)
Min Temperature 32 °F 38 °F 8 °F (1940)
Degree Days  
Heating Degree Days 17 16  
Month to date heating degree days 535 432  
Since 1 July heating degree days 1342 1221  
Moisture  
Dew Point 32 °F    
Average Humidity 63    
Maximum Humidity 96    
Minimum Humidity 30    
Precipitation  
Precipitation 0.00 in 0.20 in 4.75 in (1994)
Month to date precipitation 2.96 4.39  
Year to date precipitation 2.96 4.39  
Snow  
Snow 0.00 in - T in (1948)
Month to date snowfall 0.0  
Since 1 July snowfall 0.0  
Snow Depth 0.00 in    
Sea Level Pressure  
Sea Level Pressure 30.15 in    
Wind  
Wind Speed 3 mph (West)    
Max Wind Speed 18 mph    
Max Gust Speed 22 mph    
Visibility 10 miles    
Events      
T = Trace of Precipitation, MM = Missing Value Source: NWS Daily Summary

Daily Weather History Graph

Daily Weather History Graph

Search for Another Location

Airport:

Trip Planner

Search our weather history database for the weather conditions in past years. The results will help you decide how hot, cold, wet, or windy it might be!

Date:

Astronomy

Jan. 27, 2011 Rise Set
Actual Time 7:05 AM CST 5:40 PM CST
Civil Twilight 6:39 AM CST 6:06 PM CST
Nautical Twilight 6:10 AM CST 6:35 PM CST
Astronomical Twilight 5:41 AM CST 7:04 PM CST
Moon 1:31 AM CST (1/27) 12:04 PM CST (1/27)
Length of Visible Light 11h 26m
Length of Day
10h 34m
Last Quarter, 37% of the Moon is Illuminated
Jan 27
Last Quarter
Feb 2
New
Feb 11
First Quarter
Feb 18
Full
Feb 24
Last Quarter

Hourly Weather History & Observations

Time (CST) Temp. Windchill Dew Point Humidity Pressure Visibility Wind Dir Wind Speed Gust Speed Precip Events Conditions
12:53 AM 34.0 °F - 32.0 °F 92% 30.21 in 10.0 mi Calm Calm - N/A   Clear
1:53 AM 34.0 °F - 32.0 °F 92% 30.20 in 10.0 mi Calm Calm - N/A   Clear
2:53 AM 34.0 °F - 32.0 °F 92% 30.19 in 10.0 mi Calm Calm - N/A   Clear
3:53 AM 33.1 °F - 30.0 °F 89% 30.19 in 10.0 mi Calm Calm - N/A   Clear
4:53 AM 32.0 °F - 30.9 °F 96% 30.18 in 10.0 mi Calm Calm - N/A   Clear
5:53 AM 33.1 °F - 30.0 °F 89% 30.18 in 10.0 mi Calm Calm - N/A   Clear
6:53 AM 33.1 °F 30.0 °F 30.0 °F 89% 30.19 in 10.0 mi West 3.5 mph - N/A   Clear
7:53 AM 36.0 °F - 30.0 °F 79% 30.21 in 10.0 mi Calm Calm - N/A   Clear
8:53 AM 42.1 °F - 34.0 °F 73% 30.22 in 10.0 mi Calm Calm - N/A   Clear
9:53 AM 50.0 °F - 35.1 °F 57% 30.22 in 10.0 mi West 4.6 mph - N/A   Clear
10:53 AM 54.0 °F - 33.1 °F 45% 30.21 in 10.0 mi West 6.9 mph - N/A   Clear
11:53 AM 57.9 °F - 33.1 °F 39% 30.19 in 10.0 mi WNW 9.2 mph - N/A   Clear
12:53 PM 60.1 °F - 30.9 °F 33% 30.15 in 10.0 mi West 11.5 mph 18.4 mph N/A   Clear
1:53 PM 62.1 °F - 32.0 °F 32% 30.12 in 10.0 mi WNW 12.7 mph - N/A   Clear
2:53 PM 62.1 °F - 30.9 °F 31% 30.10 in 10.0 mi NW 8.1 mph 16.1 mph N/A   Clear
3:53 PM 62.1 °F - 30.0 °F 30% 30.09 in 10.0 mi West 9.2 mph - N/A   Clear
4:53 PM 60.1 °F - 30.9 °F 33% 30.09 in 10.0 mi West 8.1 mph - N/A   Clear
5:53 PM 54.0 °F - 36.0 °F 51% 30.09 in 10.0 mi WSW 4.6 mph - N/A   Clear
6:53 PM 52.0 °F - 34.0 °F 50% 30.10 in 10.0 mi Calm Calm - N/A   Clear
7:53 PM 48.0 °F - 35.1 °F 61% 30.10 in 10.0 mi Calm Calm - N/A   Clear
8:53 PM 46.0 °F - 34.0 °F 63% 30.10 in 10.0 mi Calm Calm - N/A   Clear
9:53 PM 44.1 °F - 35.1 °F 71% 30.11 in 10.0 mi Calm Calm - N/A   Clear
10:53 PM 44.6 °F - 33.8 °F 66% 30.09 in 10.0 mi Calm Calm - N/A   Clear
11:53 PM 43.0 °F - 35.1 °F 74% 30.10 in 10.0 mi Calm Calm - N/A   Clear